Weather History for Tracy, MN

Change the Weather History Date:

Sunday, August 10, 2014

  Actual Average (KMML) Record (KMML)
Temperature  
Mean Temperature 72 °F -  
Max Temperature 78 °F 80 °F 96 °F (1958)
Min Temperature 66 °F 57 °F 44 °F (1982)
Cooling Degree Days 7    
Growing Degree Days 22 (Base 50)    
Moisture  
Dew Point 66 °F    
Average Humidity 82    
Maximum Humidity 91    
Minimum Humidity 68    
Precipitation  
Precipitation 0.08 in - - ()
Sea Level Pressure  
Sea Level Pressure 30.05 in    
Wind  
Wind Speed 6 mph (WNW)    
Max Wind Speed 14 mph    
Max Gust Speed 17 mph    
Visibility 9 miles    
Events Rain , Thunderstorm    
Averages and records for this station are not official NWS values.
T = Trace of Precipitation, MM = Missing Value Source: NWS Daily Summary

Daily Weather History Graph

Daily Weather History Graph

Search for Another Location

Airport:

Trip Planner

Search our weather history database for the weather conditions in past years. The results will help you decide how hot, cold, wet, or windy it might be!

Date:

Astronomy

Aug. 10, 2014 Rise Set
Actual Time 6:20 AM CDT 8:34 PM CDT
Civil Twilight 5:48 AM CDT 9:06 PM CDT
Nautical Twilight 5:08 AM CDT 9:46 PM CDT
Astronomical Twilight 4:24 AM CDT 10:29 PM CDT
Moon 8:18 PM CDT (8/10) 6:15 AM CDT (8/10)
Length of Visible Light 15h 18m
Length of Day
14h 14m
Full, 100% of the Moon is Illuminated
Aug 10
Full
Aug 10
Full
Aug 17
Last Quarter
Aug 25
New
Sep 2
First Quarter

Hourly Weather History & Observations

Time (CDT) Temp. Dew Point Humidity Pressure Visibility Wind Dir Wind Speed Gust Speed Precip Events Conditions
12:12 AM 69.8 °F 65.7 °F 87% 30.03 in 10.0 mi Calm Calm - N/A   Overcast
12:33 AM 70.0 °F 65.7 °F 86% 30.03 in 10.0 mi Calm Calm - N/A   Overcast
12:52 AM 70.0 °F 65.7 °F 86% 30.03 in 10.0 mi SSW 9.2 mph - N/A   Overcast
1:12 AM 69.8 °F 65.3 °F 86% 30.02 in 10.0 mi South 9.2 mph - N/A   Overcast
1:32 AM 69.8 °F 65.3 °F 86% 30.04 in 10.0 mi SSW 10.4 mph - N/A   Overcast
1:52 AM 69.6 °F 64.9 °F 85% 30.04 in 10.0 mi SSW 10.4 mph - N/A   Overcast
2:12 AM 69.4 °F 64.6 °F 84% 30.03 in 10.0 mi SSW 9.2 mph - N/A   Scattered Clouds
2:33 AM 69.3 °F 64.4 °F 84% 30.03 in 10.0 mi SSW 9.2 mph - N/A   Mostly Cloudy
2:52 AM 68.9 °F 64.4 °F 86% 30.03 in 10.0 mi SSW 10.4 mph - N/A   Overcast
3:13 AM 68.5 °F 63.9 °F 85% 30.03 in 10.0 mi SSW 10.4 mph - N/A   Mostly Cloudy
3:33 AM 68.4 °F 63.7 °F 85% 30.04 in 10.0 mi SSW 10.4 mph - N/A   Scattered Clouds
4:13 AM 68.0 °F 63.9 °F 87% 30.03 in 10.0 mi SSW 9.2 mph - N/A   Clear
4:32 AM 68.0 °F 64.0 °F 87% 30.03 in 10.0 mi SSW 9.2 mph - N/A   Clear
4:52 AM 67.5 °F 64.0 °F 89% 30.03 in 10.0 mi SSW 8.1 mph - N/A   Clear
5:13 AM 68.0 °F 64.4 °F 88% 30.03 in 10.0 mi SSW 9.2 mph - N/A   Mostly Cloudy
5:33 AM 68.2 °F 64.8 °F 89% 30.04 in 10.0 mi Calm Calm - N/A   Overcast
5:52 AM 68.2 °F 65.1 °F 90% 30.04 in 7.0 mi Calm Calm - N/A   Overcast
6:12 AM 68.2 °F 65.3 °F 90% 30.04 in 7.0 mi SSW 3.5 mph - N/A   Overcast
6:33 AM 68.0 °F 65.3 °F 91% 30.04 in 7.0 mi Calm Calm - N/A   Mostly Cloudy
6:52 AM 67.6 °F 64.8 °F 90% 30.05 in 5.0 mi Calm Calm - N/A   Mostly Cloudy
7:13 AM 68.0 °F 64.9 °F 90% 30.05 in 7.0 mi Calm Calm - N/A   Overcast
7:33 AM 68.2 °F 65.3 °F 90% 30.06 in 7.0 mi Calm Calm - N/A   Overcast
7:53 AM 68.5 °F 65.5 °F 90% 30.05 in 5.0 mi Calm Calm - N/A   Overcast
8:13 AM 69.6 °F 66.0 °F 88% 30.06 in 7.0 mi Calm Calm - N/A   Overcast
8:32 AM 69.8 °F 66.2 °F 88% 30.05 in 5.0 mi Calm Calm - N/A   Mostly Cloudy
8:52 AM 71.2 °F 67.3 °F 87% 30.05 in 5.0 mi SSW 9.2 mph - N/A   Mostly Cloudy
9:13 AM 70.9 °F 66.7 °F 87% 30.04 in 7.0 mi SW 6.9 mph - N/A   Mostly Cloudy
9:32 AM 71.6 °F 67.1 °F 86% 30.04 in 7.0 mi SSW 6.9 mph - N/A   Mostly Cloudy
9:53 AM 71.6 °F 66.9 °F 85% 30.04 in 7.0 mi SSW 6.9 mph - N/A   Overcast
10:12 AM 72.7 °F 67.5 °F 84% 30.05 in 10.0 mi Calm Calm - N/A   Mostly Cloudy
10:32 AM 72.5 °F 67.5 °F 84% 30.05 in 10.0 mi Calm Calm - N/A   Overcast
10:52 AM 72.9 °F 67.3 °F 83% 30.05 in 10.0 mi Calm Calm - N/A   Overcast
11:12 AM 73.0 °F 67.6 °F 83% 30.06 in 10.0 mi Calm Calm - N/A   Overcast
11:32 AM 73.9 °F 67.6 °F 81% 30.06 in 10.0 mi Calm Calm - N/A   Overcast
11:52 AM 75.2 °F 67.6 °F 77% 30.06 in 10.0 mi Calm Calm - N/A   Overcast
12:07 PM 72.9 °F 68.2 °F 85% 30.07 in 7.0 mi Calm Calm - 0.03 in Rain Heavy Rain
12:32 PM 72.0 °F 68.7 °F 89% 30.06 in 10.0 mi Calm Calm - 0.08 in   Overcast
12:53 PM 74.8 °F 68.9 °F 82% 30.07 in 10.0 mi North 9.2 mph - 0.08 in   Mostly Cloudy
1:12 PM 75.4 °F 67.6 °F 77% 30.06 in 10.0 mi NNW 9.2 mph - N/A   Mostly Cloudy
1:33 PM 76.6 °F 66.9 °F 72% 30.06 in 10.0 mi NW 11.5 mph - N/A   Mostly Cloudy
1:53 PM 77.7 °F 67.5 °F 71% 30.05 in 10.0 mi NW 10.4 mph - N/A   Scattered Clouds
2:12 PM 77.0 °F 67.1 °F 71% 30.05 in 10.0 mi NW 10.4 mph 17.3 mph N/A   Clear
2:33 PM 77.7 °F 67.8 °F 71% 30.05 in 10.0 mi NW 9.2 mph - N/A   Mostly Cloudy
2:53 PM 76.1 °F 66.0 °F 71% 30.04 in 10.0 mi NW 11.5 mph - N/A   Mostly Cloudy
3:12 PM 77.0 °F 66.2 °F 69% 30.04 in 10.0 mi NW 10.4 mph - N/A Thunderstorm Mostly Cloudy
3:33 PM 77.0 °F 66.4 °F 70% 30.04 in 10.0 mi WNW 4.6 mph - N/A   Mostly Cloudy
3:53 PM 77.0 °F 66.7 °F 70% 30.04 in 10.0 mi NW 8.1 mph - N/A   Scattered Clouds
4:12 PM 77.2 °F 67.3 °F 71% 30.04 in 10.0 mi WNW 9.2 mph - N/A   Scattered Clouds
4:32 PM 78.3 °F 67.5 °F 69% 30.04 in 10.0 mi NW 8.1 mph - N/A   Mostly Cloudy
4:53 PM 77.9 °F 66.9 °F 69% 30.04 in 10.0 mi NW 10.4 mph 16.1 mph N/A   Overcast
5:12 PM 77.7 °F 66.6 °F 68% 30.04 in 10.0 mi NW 13.8 mph 17.3 mph N/A   Overcast
5:33 PM 77.9 °F 66.7 °F 68% 30.03 in 10.0 mi NW 12.7 mph 16.1 mph N/A   Mostly Cloudy
5:53 PM 76.5 °F 66.7 °F 72% 30.03 in 10.0 mi NNW 9.2 mph - N/A   Scattered Clouds
6:12 PM 77.0 °F 66.6 °F 70% 30.03 in 10.0 mi NW 8.1 mph 16.1 mph N/A   Clear
6:32 PM 77.5 °F 67.1 °F 70% 30.03 in 10.0 mi NW 9.2 mph - N/A   Scattered Clouds
6:53 PM 77.0 °F 66.9 °F 71% 30.03 in 10.0 mi NW 11.5 mph 17.3 mph N/A   Scattered Clouds
7:13 PM 76.1 °F 66.2 °F 71% 30.03 in 10.0 mi NNW 9.2 mph 16.1 mph N/A   Scattered Clouds
7:32 PM 74.5 °F 66.2 °F 75% 30.04 in 10.0 mi NNW 9.2 mph - N/A   Scattered Clouds
7:52 PM 73.6 °F 66.2 °F 78% 30.05 in 10.0 mi NNW 12.7 mph - N/A   Mostly Cloudy
8:13 PM 72.5 °F 66.7 °F 82% 30.05 in 10.0 mi North 10.4 mph - N/A   Mostly Cloudy
8:33 PM 71.1 °F 65.7 °F 83% 30.05 in 10.0 mi NNW 6.9 mph - N/A   Scattered Clouds
8:53 PM 70.5 °F 66.2 °F 86% 30.06 in 10.0 mi NNW 8.1 mph - N/A   Scattered Clouds
9:13 PM 71.4 °F 66.4 °F 84% 30.05 in 10.0 mi NNW 12.7 mph 17.3 mph N/A   Mostly Cloudy
9:32 PM 70.3 °F 66.2 °F 87% 30.05 in 10.0 mi NNW 5.8 mph - N/A   Mostly Cloudy
9:52 PM 69.4 °F 65.3 °F 87% 30.05 in 10.0 mi NNW 6.9 mph - N/A   Clear
10:13 PM 68.4 °F 65.3 °F 90% 30.06 in 10.0 mi NW 10.4 mph - N/A   Clear
10:33 PM 68.2 °F 64.4 °F 88% 30.07 in 10.0 mi NW 8.1 mph - N/A   Clear
10:52 PM 67.5 °F 64.4 °F 90% 30.07 in 10.0 mi NW 9.2 mph - N/A   Clear
11:13 PM 67.1 °F 63.1 °F 87% 30.07 in 10.0 mi NW 10.4 mph - N/A   Clear
11:33 PM 66.9 °F 61.7 °F 83% 30.07 in 10.0 mi NNW 10.4 mph - N/A   Clear
11:53 PM 66.2 °F 61.0 °F 83% 30.07 in 10.0 mi NW 9.2 mph - N/A   Clear